FENGYUN 1C DEB, 30677

Orbit data source: Space-Track

FENGYUN 1C DEB, 30677 is space debris in SSO originally from a launch on Mon, 10 May 1999 UTC launched from the Taiyaun Space Center, China (TSC). Fengyun 1C debris stems from the Chinese weather satellite Fengyun-1C, which was intentionally destroyed by a Chinese anti-satellite missile in 2007. This event dramatically increased the amount of space debris, with thousands of trackable fragments posing hazards to satellites and human spaceflight. The Fengyun 1C debris cloud has become a focal point in discussions about space sustainability and the need for international regulations to prevent the creation of new debris.

Loading next visibility...
Identifier
30677, 1999-025AQK
Orbit
SSO
Country
Flag of CNCN / PRC
Related business
Manufacturer
Unknown
Mission
Spacecraft
Bus & Motor
Unknown
Mass
Unknown
Launch date (UTC)
1999-05-10 (27 years ago)
Launch vehicle
Unknown
Launch site
Taiyaun Space Center, China (TSC)
Object type
Payload
Rocket body
Debris
Shape & HBR
Unknown shape, 0.1 m
Radar Cross Section
Small (<0.1 m²)

Expand to show TLE details & history
Last TLE update: 19 hours ago

TLE from 19 hours ago
0 FENGYUN 1C DEB
1 30677U 99025AQK 26238.06059810  .00002462  00000-0  77917-3 0  9996
2 30677  98.2357 278.2479 0066332 151.5603 271.9305 14.39702860 16553
Epoch: 2026-08-26T01:27Z
TLE epoch observation values (Epoch: 2026-08-26T01:27:15.675Z)
Latitude
61.70085°
Longitude
-93.39513°
Altitude
768.745 km
Speed
7.476 km/s
True Right ascension
17h 30m 57s
True Declination
61° 33' 26"
Sunlit
Object was in daylight at epoch
Visualization orbit readout
Latitude
Unknown
Longitude
Unknown
Altitude
Unknown
Speed
Unknown
Apparent Right ascension
Unknown
Apparent Declination
Unknown
Sunlit
N/A
Visualization observer readout
Local Sidereal Time
12:00:30
Azimuth
Unknown
Elevation
Unknown
Doppler factor
Unknown
Orbital elements
Apogee altitude
803.916 km
Perigee altitude
709.264 km
Semi-major axis
7,134.727 km
Eccentricity
0.00663
Inclination
98.2357°
RAAN
278.2479°
Arg. of periapsis
151.5603°
True anomaly
271.17063°
Mean anomaly
271.9305°
Eccentric anomaly
271.55058°
Mean motion
3.60145 °/min
Orbital period
99.96 mins
BSTAR
0.00077917
Loading maneuver chart data...
Computing Atmospheric mass density...
Loading historical data...
Loading historical data...
Loading historical data...
Loading historical data...
Loading historical data...
Loading historical data...
Loading historical data...

Documentation

Showing up to 5 results
|